Location: Dampvalley
(47.9094°N, 6.1967°E)
Time: 17:24:07
(UTC+00:00)

CZ-4B R/B - Pass Details

Date: 05 March 2021
Orbit: 388 x 454 km, 97.6° (Epoch: 15 April)

Event Time Altitude Azimuth Distance (km) Brightness Sun altitude
Rises 04:24:48 0° 152° (SSE) 2,331 5.2 -18.1°
Reaches altitude 10° 04:26:50 10° 145° (SE) 1,463 4.3 -17.8°
Maximum altitude 04:29:49 44° 72° (ENE) 572 2.4 -17.3°
Drops below altitude 10° 04:32:46 10° 359° (N) 1,450 4.1 -16.8°
Sets 04:34:47 0° 353° (N) 2,305 5.0 -16.4°
